Wahoo, NE

10:07 AM CDT on June 24, 2017 (GMT -0500)
Wahoo Municipal

Weather History for KAHQ - February, 2012

Change the Weather History Date:

Tuesday, February 21, 2012

  Actual Average Record
Temperature  
Mean Temperature 38 °F -  
Max Temperature 44 °F 43 °F 74 °F (2017)
Min Temperature 32 °F 20 °F -6 °F (1978)
Degree Days  
Heating Degree Days 27    
Moisture  
Dew Point 30 °F    
Average Humidity 77    
Maximum Humidity 92    
Minimum Humidity 60    
Precipitation  
Precipitation 0.04 in - - ()
Sea Level Pressure  
Sea Level Pressure 29.77 in    
Wind  
Wind Speed 13 mph (West)    
Max Wind Speed 18 mph    
Max Gust Speed 20 mph    
Visibility 10 miles    
Events      
Averages and records for this station are not official NWS values.
T = Trace of Precipitation, MM = Missing Value Source: NWS Daily Summary

Daily Weather History Graph

Daily Weather History Graph

Search for Another Location

Airport or City:

Trip Planner

Search our weather history database for the weather conditions in past years. The results will help you decide how hot, cold, wet, or windy it might be!

Date:

Astronomy

Feb. 21, 2012 Rise Set
Actual Time 7:13 AM CST 6:07 PM CST
Civil Twilight 6:45 AM CST 6:35 PM CST
Nautical Twilight 6:13 AM CST 7:07 PM CST
Astronomical Twilight 5:41 AM CST 7:39 PM CST
Moon 6:42 AM CST (2/21) 6:15 PM CST (2/21)
Length of Visible Light 11h 49m
Length of Day
10h 53m
Waning Crescent, 0% of the Moon is Illuminated
Feb 21
Waning Crescent
Feb 21
New
Feb 29
First Quarter
Mar 8
Full
Mar 14
Last Quarter

Hourly Weather History & Observations

Time (CST) Temp. Windchill Dew Point Humidity Pressure Visibility Wind Dir Wind Speed Gust Speed Precip Events Conditions
12:15 AM 34.7 °F 25.5 °F 32.2 °F 91% 29.68 in 10.0 mi NW 13.8 mph - N/A   Overcast
12:35 AM 34.7 °F 24.7 °F 32.0 °F 90% 29.69 in 10.0 mi NW 16.1 mph - N/A   Overcast
12:55 AM 34.2 °F 25.2 °F 32.0 °F 92% 29.70 in 10.0 mi NW 12.7 mph 18.4 mph N/A   Mostly Cloudy
1:15 AM 34.2 °F 24.8 °F 31.8 °F 91% 29.70 in 10.0 mi NW 13.8 mph - N/A   Clear
1:35 AM 34.3 °F 24.6 °F 32.0 °F 91% 29.71 in 10.0 mi WNW 15.0 mph - N/A   Clear
1:55 AM 34.3 °F 25.0 °F 31.8 °F 90% 29.71 in 10.0 mi NW 13.8 mph - N/A   Clear
2:15 AM 34.7 °F 24.3 °F 32.0 °F 90% 29.71 in 10.0 mi WNW 17.3 mph - N/A   Clear
2:35 AM 34.5 °F 25.3 °F 31.8 °F 90% 29.72 in 10.0 mi WNW 13.8 mph - N/A   Clear
2:55 AM 34.3 °F 24.2 °F 31.6 °F 90% 29.73 in 10.0 mi WNW 16.1 mph - N/A   Clear
3:35 AM 34.2 °F 24.8 °F 31.1 °F 89% 29.74 in 10.0 mi WNW 13.8 mph - N/A   Clear
3:55 AM 34.0 °F 25.0 °F 30.9 °F 89% 29.74 in 10.0 mi West 12.7 mph - N/A   Clear
4:15 AM 34.0 °F 24.2 °F 30.9 °F 89% 29.74 in 10.0 mi West 15.0 mph - N/A   Clear
4:35 AM 34.2 °F 24.8 °F 30.9 °F 88% 29.75 in 10.0 mi West 13.8 mph - N/A   Clear
4:55 AM 33.8 °F 27.0 °F 30.6 °F 88% 29.76 in 10.0 mi West 8.1 mph - N/A   Clear
5:15 AM 33.8 °F 23.5 °F 29.7 °F 85% 29.76 in 10.0 mi West 16.1 mph - N/A   Clear
5:35 AM 33.8 °F 23.5 °F 28.8 °F 82% 29.77 in 10.0 mi West 16.1 mph - N/A   Clear
6:15 AM 33.1 °F 24.4 °F 27.5 °F 80% 29.78 in 10.0 mi West 11.5 mph - N/A   Clear
6:35 AM 33.1 °F 23.9 °F 27.1 °F 79% 29.79 in 10.0 mi West 12.7 mph - N/A   Clear
6:55 AM 32.9 °F 23.7 °F 26.6 °F 78% 29.80 in 10.0 mi West 12.7 mph - N/A   Clear
7:15 AM 32.7 °F 23.0 °F 26.4 °F 78% 29.80 in 10.0 mi West 13.8 mph - N/A   Clear
7:35 AM 32.9 °F 23.7 °F 25.9 °F 75% 29.80 in 10.0 mi West 12.7 mph - N/A   Clear
7:55 AM 32.9 °F 23.7 °F 25.9 °F 75% 29.81 in 10.0 mi West 12.7 mph - N/A   Clear
8:15 AM 33.1 °F 24.4 °F 26.1 °F 75% 29.82 in 10.0 mi West 11.5 mph 17.3 mph N/A   Clear
8:35 AM 33.3 °F 25.1 °F 26.4 °F 76% 29.83 in 10.0 mi West 10.4 mph - N/A   Clear
8:55 AM 34.0 °F 25.5 °F 26.6 °F 74% 29.83 in 10.0 mi West 11.5 mph - N/A   Clear
9:15 AM 34.9 °F 25.7 °F 26.6 °F 72% 29.83 in 10.0 mi West 13.8 mph - N/A   Clear
9:35 AM 34.9 °F 25.7 °F 27.0 °F 73% 29.84 in 10.0 mi West 13.8 mph - N/A   Clear
9:55 AM 35.2 °F 25.8 °F 27.1 °F 72% 29.83 in 10.0 mi West 15.0 mph - N/A   Clear
10:15 AM 35.6 °F 26.6 °F 27.1 °F 71% 29.84 in 10.0 mi West 13.8 mph - N/A   Clear
10:35 AM 36.5 °F 27.4 °F 28.0 °F 71% 29.83 in 10.0 mi West 15.0 mph 19.6 mph N/A   Clear
10:55 AM 37.2 °F 27.3 °F 29.3 °F 73% 29.83 in 10.0 mi West 18.4 mph - N/A   Clear
11:15 AM 38.1 °F 29.5 °F 29.7 °F 72% 29.84 in 10.0 mi West 15.0 mph 19.6 mph N/A   Clear
11:35 AM 39.2 °F 31.6 °F 30.9 °F 72% 29.84 in 10.0 mi West 12.7 mph - N/A   Clear
11:55 AM 40.3 °F 32.6 °F 31.3 °F 70% 29.84 in 10.0 mi West 13.8 mph - N/A   Clear
12:15 PM 41.2 °F 34.5 °F 32.0 °F 70% 29.84 in 10.0 mi West 11.5 mph 16.1 mph N/A   Clear
12:35 PM 41.9 °F 34.3 °F 31.8 °F 67% 29.83 in 10.0 mi WNW 15.0 mph - N/A   Clear
12:55 PM 42.6 °F 35.9 °F 31.8 °F 66% 29.82 in 10.0 mi West 12.7 mph - N/A   Clear
1:15 PM 43.0 °F 36.0 °F 31.8 °F 65% 29.81 in 10.0 mi West 13.8 mph - N/A   Clear
1:35 PM 42.8 °F 36.2 °F 31.3 °F 64% 29.81 in 10.0 mi West 12.7 mph - N/A   Clear
1:55 PM 43.7 °F 37.7 °F 32.7 °F 65% 29.80 in 10.0 mi West 11.5 mph - N/A   Clear
2:15 PM 44.2 °F 37.6 °F 32.9 °F 64% 29.79 in 10.0 mi West 13.8 mph - N/A   Clear
2:35 PM 44.1 °F 37.4 °F 32.4 °F 63% 29.79 in 10.0 mi West 13.8 mph - N/A   Clear
2:55 PM 44.1 °F 38.1 °F 32.0 °F 63% 29.79 in 10.0 mi West 11.5 mph - N/A   Clear
3:15 PM 43.7 °F 37.3 °F 31.6 °F 63% 29.79 in 10.0 mi WSW 12.7 mph - N/A   Clear
3:35 PM 43.7 °F 37.3 °F 30.6 °F 60% 29.78 in 10.0 mi WSW 12.7 mph - N/A   Clear
4:15 PM 43.7 °F 39.1 °F 32.4 °F 64% 29.77 in 10.0 mi WSW 8.1 mph - N/A   Mostly Cloudy
4:35 PM 44.1 °F 39.0 °F 32.2 °F 63% 29.77 in 10.0 mi WSW 9.2 mph - N/A   Mostly Cloudy
4:55 PM 44.1 °F 39.0 °F 32.0 °F 63% 29.76 in 10.0 mi WSW 9.2 mph - N/A   Clear
5:15 PM 43.7 °F 39.1 °F 31.6 °F 63% 29.76 in 10.0 mi WSW 8.1 mph - N/A   Clear
5:35 PM 42.6 °F 39.0 °F 31.8 °F 66% 29.75 in 10.0 mi WSW 5.8 mph - N/A   Clear
5:55 PM 40.8 °F 36.2 °F 31.5 °F 69% 29.74 in 10.0 mi SW 6.9 mph - N/A   Clear
6:15 PM 40.5 °F 36.5 °F 30.9 °F 69% 29.73 in 10.0 mi SSW 5.8 mph - N/A   Clear
6:55 PM 35.8 °F 30.1 °F 30.7 °F 82% 29.72 in 10.0 mi South 6.9 mph - N/A   Clear
7:15 PM 34.5 °F 27.9 °F 30.4 °F 85% 29.71 in 10.0 mi South 8.1 mph - N/A   Clear
7:35 PM 33.8 °F 27.0 °F 29.8 °F 85% 29.71 in 10.0 mi South 8.1 mph - N/A   Clear
7:55 PM 33.6 °F 26.8 °F 29.8 °F 86% 29.70 in 10.0 mi South 8.1 mph - N/A   Clear
8:15 PM 33.1 °F 26.1 °F 29.7 °F 87% 29.68 in 10.0 mi South 8.1 mph - N/A   Clear
8:35 PM 33.6 °F 28.4 °F 29.3 °F 84% 29.68 in 10.0 mi South 5.8 mph - N/A   Clear
8:55 PM 35.4 °F 29.0 °F 29.7 °F 80% 29.67 in 10.0 mi SSW 8.1 mph - N/A   Clear
9:15 PM 35.6 °F 29.9 °F 29.1 °F 77% 29.67 in 10.0 mi SSW 6.9 mph - N/A   Clear
9:35 PM 35.6 °F 29.9 °F 28.9 °F 77% 29.66 in 10.0 mi SW 6.9 mph - N/A   Clear
9:55 PM 35.6 °F 29.2 °F 29.1 °F 77% 29.66 in 10.0 mi SW 8.1 mph - N/A   Clear
10:15 PM 36.1 °F 32.3 °F 29.1 °F 76% 29.65 in 10.0 mi WSW 4.6 mph - N/A   Clear
10:35 PM 36.1 °F 32.3 °F 29.3 °F 76% 29.64 in 10.0 mi SW 4.6 mph - N/A   Scattered Clouds
10:55 PM 37.0 °F 32.4 °F 29.8 °F 75% 29.63 in 10.0 mi WSW 5.8 mph - N/A   Overcast
11:15 PM 37.9 °F 32.1 °F 30.2 °F 74% 29.63 in 10.0 mi SW 8.1 mph - N/A   Overcast
11:35 PM 37.8 °F 31.8 °F 30.2 °F 74% 29.63 in 10.0 mi WSW 8.1 mph - N/A   Scattered Clouds
11:55 PM 34.9 °F - 30.0 °F 82% 29.61 in 10.0 mi Calm Calm - N/A   Scattered Clouds